DW8102 Weather Reports


time (UTC)temp
C
wind
direction
speed
KPH
gust
KPH
rain 1hr
cm
rain 24hr
cm
rain mn
cm
humidity
%
barometer
mb
20260508054542 9 139 0.0 0.0 0.00 0.00 0.00 56 1024.9
20260508053037 8 149 0.0 0.0 0.00 0.00 0.00 66 1024.7
20260508051532 6 102 0.0 0.0 0.00 0.00 0.00 73 1024.6
20260508050033 6 50 0.0 0.0 0.00 0.00 0.00 74 1024.4
20260508044531 6 92 0.0 0.0 0.00 0.00 0.00 74 1024.3
20260508043029 6 111 0.0 0.0 0.00 0.00 0.00 74 1024.2
20260508041533 5 111 0.0 0.0 0.00 0.00 0.00 75 1024.1
20260508040029 5 113 0.0 0.0 0.00 0.00 0.00 80 1024.0
20260508034528 2 98 0.0 0.0 0.00 0.00 0.00 84 1023.8
20260508033035 2 111 0.0 0.0 0.00 0.00 0.00 84 1023.6
20260508031525 2 101 0.0 0.0 0.00 0.00 0.00 84 1023.5
20260508030021 2 101 0.0 0.0 0.00 0.00 0.00 83 1023.4
20260508024520 2 103 0.0 0.0 0.00 0.00 0.00 82 1023.2
20260508023033 2 102 0.0 0.0 0.00 0.00 0.00 81 1023.1
20260508021515 2 104 0.0 0.0 0.00 0.00 0.00 80 1023.0
20260508020013 2 102 0.0 0.0 0.00 0.00 0.00 78 1022.9
20260508014514 3 102 0.0 0.0 0.00 0.00 0.00 76 1022.8
20260508013010 3 91 0.0 0.0 0.00 0.00 0.00 74 1022.6
20260508011508 3 115 0.0 0.0 0.00 0.00 0.00 73 1022.5
20260508010012 3 109 0.0 0.0 0.00 0.00 0.00 72 1022.4
20260508004516 3 125 0.0 0.0 0.00 0.00 0.00 72 1022.3
20260508003006 3 117 0.0 0.0 0.00 0.00 0.00 72 1022.2
20260508001505 3 113 0.0 0.0 0.00 0.00 0.00 72 1022.0
20260508000001 3 201 0.0 0.0 0.00 0.00 0.00 72 1021.8
20260507234600 2 205 0.0 0.0 0.00 0.00 0.00 71 1021.7
20260507233059 3 95 0.0 0.0 0.00 0.00 0.00 69 1021.6
20260507231559 3 95 0.0 0.0 0.00 0.00 0.00 63 1021.6
20260507224600 4 93 0.0 0.0 0.00 0.00 0.00 59 1021.3
20260507223050 5 94 0.0 0.0 0.00 0.00 0.00 58 1021.2
20260507221545 5 57 0.0 0.0 0.00 0.00 0.00 56 1021.0
20260507214542 5 67 0.0 0.0 0.00 0.00 0.00 52 1021.0
20260507213046 6 68 0.0 0.0 0.00 0.00 0.00 50 1020.7
20260507211536 6 101 0.0 0.0 0.00 0.00 0.00 47 1020.4
20260507204530 7 93 0.0 0.0 0.00 0.00 0.00 43 1020.0
20260507203027 7 76 0.0 0.0 0.00 0.00 0.00 42 1019.8
20260507201529 7 51 0.0 0.0 0.00 0.00 0.00 38 1019.7
20260507194542 8 141 0.0 1.6 0.00 0.00 0.00 36 1018.9
20260507193103 9 139 0.0 1.6 0.00 0.00 0.00 35 1018.7
20260507191536 10 134 0.0 0.0 0.00 0.00 0.00 39 1018.4
20260507184505 11 156 0.0 1.6 0.00 0.00 0.00 34 1017.8
20260507183114 12 131 0.0 1.6 0.00 0.00 0.00 31 1017.8
20260507183003 12 131 0.0 1.6 0.00 0.00 0.00 32 1017.8
20260507181558 12 149 0.0 3.2 0.00 0.00 0.00 31 1017.5
20260507174554 14 162 0.0 3.2 0.00 0.00 0.00 28 1017.1
20260507173118 13 144 0.0 1.6 0.00 0.00 0.00 32 1017.0
20260507171549 13 143 0.0 3.2 0.00 0.00 0.00 32 1016.9
20260507164543 13 66 0.0 0.0 0.00 0.00 0.00 40 1016.5
20260507163039 15 60 0.0 0.0 0.00 0.00 0.00 39 1016.4
20260507161536 15 357 0.0 0.0 0.00 0.00 0.00 36 1016.4
20260507154535 14 29 0.0 0.0 0.00 0.00 0.00 39 1016.2
20260507153033 15 332 0.0 0.0 0.00 0.00 0.00 38 1016.1
20260507151527 14 15 0.0 0.0 0.00 0.00 0.00 38 1016.1
20260507144528 16 359 0.0 0.0 0.00 0.00 0.00 34 1016.0
20260507143014 15 338 0.0 1.6 0.00 0.00 0.00 34 1015.9
20260507141510 14 351 0.0 0.0 0.00 0.00 0.00 32 1015.9
20260507134504 14 352 0.0 0.0 0.00 0.00 0.00 35 1015.8
20260507133003 14 334 0.0 0.0 0.00 0.00 0.00 33 1015.8
20260507131600 14 57 0.0 0.0 0.00 0.00 0.00 35 1015.9
20260507124552 14 45 0.0 0.0 0.00 0.00 0.00 39 1015.8
20260507123048 14 342 0.0 0.0 0.00 0.00 0.00 36 1015.9
20260507121544 14 344 0.0 0.0 0.00 0.00 0.00 39 1015.8
20260507114534 13 345 0.0 0.0 0.00 0.00 0.00 37 1016.0
20260507113031 13 340 0.0 1.6 0.00 0.00 0.00 38 1016.0
20260507111536 13 12 0.0 0.0 0.00 0.00 0.00 38 1016.0
20260507104530 12 355 0.0 0.0 0.00 0.00 0.00 41 1016.0
20260507103032 12 360 0.0 1.6 0.00 0.00 0.00 42 1015.9
20260507101528 12 335 0.0 0.0 0.00 0.00 0.00 49 1015.7
20260507094527 11 322 0.0 1.6 0.00 0.00 0.00 50 1015.6
20260507093033 11 34 0.0 1.6 0.00 0.00 0.00 54 1015.6
20260507091527 11 346 0.0 0.0 0.00 0.00 0.00 51 1015.6
20260507084524 10 343 0.0 0.0 0.00 0.00 0.00 52 1015.7
20260507083028 10 43 0.0 0.0 0.00 0.00 0.00 53 1015.6
20260507081533 10 11 0.0 0.0 0.00 0.00 0.00 54 1015.5
20260507074522 10 340 0.0 1.6 0.00 0.00 0.00 51 1015.6
20260507073021 11 336 0.0 0.0 0.00 0.00 0.00 47 1015.5
20260507071523 10 195 0.0 1.6 0.00 0.00 0.00 39 1015.5
20260507064519 9 198 0.0 0.0 0.00 0.00 0.00 44 1015.4
20260507063018 10 127 0.0 0.0 0.00 0.00 0.00 47 1015.4
20260507061516 8 215 0.0 0.0 0.00 0.00 0.00 52 1015.3